Location: Unspecified
(42.3650°N, 71.1030°W)
Time: 17:22:35
(UTC+00:00)

S-56A Canister/Altair - Pass Details

Date: 03 July 2024
Orbit: 638 x 2487 km, 38.9° (Epoch: 20 July)

Event Time Altitude Azimuth Distance (km) Brightness Sun altitude
Rises 03:49:22 0° 280° (W) 4,297 11.7 -23.3°
Reaches altitude 10° 03:52:06 10° 273° (W) 3,555 11.1 -23.4°
Maximum altitude 04:00:46 41° 207° (SSW) 2,499 9.7 -23.8°
Enters shadow 04:04:10 35° 174° (S) 2,905 9.8 -23.9°
